Wind_Speed
14 14 13 13 13 13 13 12 10 9 9 8 7 6 4 4 5 5 5 7 7 8 8 8 8 8 7 7 5 4 2 1 1 1 1 1 1 2 3 3 4 5 6 7
14 14 15 16 15 15 15 14 12 12 12 11 10 9 7 6 6 6 6 6 6 6 6 7 7 7 6 6 5 4 3 2 1 2 1 1 2 3 3 3 4 6 7 7
15 15 16 17 17 17 17 16 15 14 14 14 13 11 10 8 8 8 8 8 7 6 5 6 6 7 6 6 5 4 3 2 2 3 3 2 3 3 4 5 5 6 7 8
17 17 17 18 18 18 17 17 17 16 16 16 16 15 12 11 11 10 10 9 9 8 7 6 7 7 7 5 4 4 3 2 3 3 3 3 4 5 5 5 5 7 8 8
17 18 18 18 18 18 18 18 18 17 17 17 17 17 14 14 13 12 12 11 11 10 8 8 8 8 8 5 4 4 4 3 3 3 4 4 5 5 6 6 6 7 9 9
18 19 18 17 18 18 18 19 19 20 19 19 18 19 16 15 15 14 14 13 12 11 10 10 9 9 9 7 6 5 4 4 4 4 4 5 5 6 7 8 8 9 9 10
19 19 18 18 19 18 19 19 20 21 21 21 19 20 18 17 16 15 14 14 13 12 11 10 11 9 9 9 7 6 6 6 6 6 6 7 7 7 8 9 10 11 11 12
19 19 19 19 19 19 20 20 21 22 22 21 21 20 18 17 16 14 14 14 13 12 11 12 11 10 10 10 9 8 9 9 9 9 9 9 10 10 10 10 11 11 12 13
20 19 19 19 20 20 20 21 21 23 23 23 22 19 18 17 16 15 15 14 13 12 13 13 13 13 13 13 12 10 11 11 11 11 11 11 11 11 11 12 13 13 14 14
20 19 20 20 21 21 21 21 21 22 23 22 22 19 17 16 16 16 16 14 14 13 13 14 14 14 14 14 14 12 13 12 12 12 13 13 13 13 13 14 14 14 14 15
22 21 21 22 22 22 22 22 23 23 23 23 22 19 17 17 16 16 15 13 13 14 13 15 15 15 15 15 16 16 15 14 14 14 15 15 15 15 15 16 16 16 17 17
22 22 22 22 23 23 23 23 24 24 24 23 22 19 17 18 17 17 15 14 14 13 14 16 17 16 16 17 17 18 17 16 16 17 17 17 18 18 18 19 19 20 20 20
23 24 23 24 24 24 25 25 25 24 24 24 23 21 19 19 18 18 17 17 16 16 16 17 19 19 19 19 19 19 19 19 18 19 19 20 20 20 21 21 22 22 22 22
27 27 27 26 25 25 26 26 26 26 26 26 25 23 21 21 20 20 20 19 19 19 18 19 20 20 20 20 20 20 20 21 20 20 22 22 23 23 25 25 25 25 25 25
29 29 29 28 27 27 28 28 28 27 27 27 26 25 23 23 22 21 21 20 21 21 21 21 22 22 22 22 22 22 22 23 23 23 24 24 25 26 26 26 27 28 28 28
31 31 30 29 29 30 30 30 29 29 29 29 29 27 26 25 24 23 23 22 22 23 24 24 24 24 23 24 24 24 25 25 25 26 26 26 27 27 27 27 28 29 29 29
32 32 31 31 31 31 32 31 30 30 31 31 30 28 27 26 25 24 24 24 24 24 25 26 26 26 27 27 26 26 27 27 27 27 28 28 28 28 29 29 29 29 29 28
33 33 33 32 32 34 31 31 30 30 31 31 32 31 29 27 26 26 26 26 26 26 26 27 27 28 29 30 29 28 29 29 30 30 30 30 30 30 30 30 30 30 29 28
34 34 34 34 35 35 33 32 31 31 32 32 32 32 31 30 29 29 29 29 29 28 28 29 30 31 31 32 31 30 31 31 32 32 32 32 32 32 32 32 32 31 30 30
34 34 35 35 35 36 34 32 31 31 31 31 32 32 32 32 32 31 31 31 31 29 29 30 31 32 33 33 33 33 33 33 34 33 33 32 32 33 33 34 33 33 32 32
33 34 35 36 36 35 34 33 32 31 30 30 31 31 32 32 32 32 32 32 32 32 32 32 32 32 33 33 34 33 33 33 34 34 33 33 34 34 34 34 34 34 34 34
34 34 35 36 36 35 33 33 32 31 30 31 30 31 31 32 33 33 33 33 33 33 33 34 34 34 34 35 35 34 33 33 33 33 33 33 34 34 33 33 33 33 33 34
34 34 35 35 35 34 33 32 32 32 31 31 31 31 32 32 32 33 33 33 34 34 34 34 34 34 34 35 35 34 34 34 33 33 33 33 33 34 34 34 33 33 34 35
34 34 34 34 34 33 33 32 32 32 32 32 32 33 33 33 33 33 33 33 34 33 34 34 34 35 34 34 35 35 34 34 34 33 32 33 33 33 33 34 35 36 36 36
34 34 34 33 33 33 32 32 32 32 32 33 34 34 33 32 32 32 32 32 32 32 32 33 33 34 35 35 34 34 34 33 33 33 33 33 33 33 33 34 35 36 35 36
32 33 33 32 31 31 31 32 32 32 32 32 33 34 33 32 31 31 31 31 31 32 32 32 33 33 34 34 34 34 34 34 33 33 33 32 32 33 34 34 35 35 34 34
Wind_Direction
230 230 231 231 234 238 240 243 248 253 256 263 273 286 302 324 332 332 346 358 9 15 15 14 11 11 13 10 9 7 15 10 359 173 167 182 191 188 199 213 220 226 226 226
233 230 229 233 236 239 240 244 247 252 256 262 269 275 287 307 307 306 317 327 343 353 359 355 357 358 357 352 356 360 354 328 298 244 230 214 217 222 231 228 228 230 229 233
233 230 231 234 237 241 245 247 247 250 254 260 267 270 276 283 289 291 302 307 316 326 338 340 337 340 339 338 340 345 335 308 264 241 236 240 228 231 239 240 238 237 236 240
233 234 234 237 241 244 246 250 251 251 252 256 264 268 269 273 282 284 288 296 303 305 318 323 323 321 323 318 316 323 315 291 266 244 238 250 250 248 251 252 251 247 243 240
235 236 238 239 243 246 245 249 252 254 257 259 263 269 270 270 276 277 280 283 289 286 294 302 305 308 317 315 295 293 299 287 269 257 253 259 260 257 255 256 255 250 243 242
236 238 240 240 242 248 249 249 252 254 257 260 265 268 270 271 276 274 275 277 281 278 281 285 287 296 303 303 290 278 284 281 269 264 264 265 264 261 259 258 255 254 250 247
239 242 243 243 246 251 254 253 253 256 257 261 265 266 269 272 275 273 272 277 274 270 272 275 279 287 295 294 293 288 281 279 270 267 267 268 268 269 265 259 259 258 255 252
242 243 246 246 249 253 255 255 255 258 260 261 262 265 268 271 272 269 273 276 272 271 267 267 273 278 282 283 281 278 275 275 272 268 271 274 275 273 271 267 264 259 256 256
243 244 246 248 250 252 254 255 257 260 262 262 262 266 264 267 270 272 275 274 271 271 269 267 269 271 274 273 273 278 278 276 278 273 272 275 277 277 277 275 272 267 261 260
242 243 243 246 250 252 254 257 258 261 265 264 263 266 267 265 271 274 276 274 271 267 264 266 268 269 270 271 272 273 276 277 279 277 277 273 272 275 276 277 276 272 267 265
244 245 243 243 245 251 254 255 259 263 266 267 268 269 268 269 271 273 274 271 268 265 262 264 268 269 273 274 274 273 278 276 278 275 276 278 275 275 275 273 272 270 268 267
248 247 245 245 247 249 251 253 258 262 265 269 271 271 269 270 273 273 273 273 273 269 265 266 269 272 274 275 276 277 277 276 277 276 278 278 280 280 279 277 274 270 268 269
249 249 248 248 250 251 251 253 256 260 263 266 270 271 271 272 273 273 272 272 272 270 268 267 269 273 276 275 275 276 275 276 276 277 279 279 279 279 279 278 277 273 272 269
251 252 253 254 254 254 254 255 257 261 264 267 269 271 270 271 271 271 272 270 268 268 267 270 271 272 273 274 275 276 276 277 277 277 279 280 280 278 278 278 276 275 274 271
253 254 255 255 254 253 254 255 258 261 264 266 268 271 270 269 270 269 269 269 268 268 267 271 272 272 273 273 275 276 277 278 278 278 279 280 281 280 279 280 278 275 274 272
253 255 255 255 254 254 255 255 257 259 262 265 267 269 269 269 268 268 269 269 268 270 270 270 274 273 273 274 274 277 278 278 279 280 279 280 282 283 281 281 280 278 276 274
254 255 256 256 255 256 255 256 258 259 261 263 265 267 268 268 266 266 267 267 268 270 270 272 275 277 277 276 277 277 277 277 277 278 279 280 281 282 281 282 282 282 280 277
253 254 255 256 256 255 257 257 259 260 261 262 263 264 265 265 265 266 268 269 270 270 270 271 273 275 278 278 278 278 278 277 277 277 278 279 280 280 280 281 281 280 278 276
252 253 255 257 258 260 259 259 261 262 261 262 263 263 263 263 265 266 269 270 271 271 272 272 273 275 276 276 276 277 279 279 278 278 277 277 277 279 280 281 280 278 277 275
253 254 255 258 261 263 263 261 262 263 262 262 262 262 262 262 263 265 268 270 272 273 273 272 272 273 275 276 277 280 281 282 280 281 279 277 277 278 278 279 280 279 276 274
254 256 256 259 261 263 264 263 264 264 263 263 263 263 262 262 264 266 267 269 271 271 273 274 273 273 275 277 279 281 283 283 282 282 281 279 278 278 278 277 277 276 275 275
254 255 257 258 260 261 263 263 264 264 263 263 263 263 263 262 263 265 267 268 270 271 271 272 273 274 275 276 278 280 281 281 281 281 281 281 279 278 277 276 277 276 276 275
254 256 258 258 259 260 261 263 264 264 265 264 264 264 265 265 264 266 268 269 270 270 271 271 273 274 276 277 279 279 279 279 280 281 280 280 280 280 277 276 275 275 276 277
257 258 258 258 257 259 260 261 263 264 265 265 265 266 266 267 267 268 269 270 271 270 271 273 274 274 275 277 278 279 278 279 280 280 280 279 279 279 277 276 276 276 276 277
258 258 258 257 257 258 259 261 263 266 266 266 267 269 269 269 269 269 269 269 271 270 271 273 274 274 275 277 277 279 279 278 279 279 278 279 278 277 277 278 277 277 278 278
257 259 258 256 256 259 260 261 263 265 267 266 266 267 268 268 269 270 269 269 270 273 274 273 274 275 274 275 276 277 279 278 279 280 280 280 279 279 281 281 281 279 279 279
Height
5890 5892 5893 5895 5895 5897 5898 5899 5900 5900 5900 5900 5900 5901 5901 5901 5902 5901 5901 5900 5899 5897 5896 5895 5894 5892 5891 5890 5889 5888 5887 5887 5887 5887 5886 5886 5887 5887 5887 5887 5888 5888 5889 5890
5889 5890 5891 5892 5893 5894 5896 5897 5898 5899 5898 5898 5899 5899 5900 5900 5901 5901 5900 5899 5898 5897 5896 5895 5894 5892 5891 5890 5889 5888 5887 5887 5886 5886 5886 5886 5887 5887 5887 5887 5887 5887 5888 5889
5886 5888 5888 5890 5891 5892 5893 5895 5896 5896 5896 5896 5897 5898 5899 5899 5899 5899 5899 5898 5897 5896 5895 5894 5893 5891 5890 5889 5888 5887 5886 5886 5886 5886 5886 5886 5886 5886 5886 5886 5886 5887 5888 5888
5883 5884 5886 5887 5888 5889 5891 5892 5893 5893 5893 5893 5895 5895 5897 5897 5897 5897 5897 5896 5895 5895 5894 5892 5891 5890 5888 5887 5886 5886 5885 5885 5885 5885 5885 5885 5885 5885 5885 5885 5885 5886 5886 5887
5880 5881 5883 5884 5885 5886 5888 5888 5889 5889 5890 5891 5891 5892 5894 5894 5894 5895 5894 5894 5893 5893 5892 5891 5889 5888 5886 5885 5884 5884 5884 5885 5885 5885 5884 5884 5884 5884 5884 5884 5884 5885 5885 5885
5877 5878 5879 5881 5882 5882 5884 5885 5885 5885 5886 5887 5889 5889 5890 5891 5891 5891 5891 5890 5890 5890 5890 5889 5888 5886 5885 5884 5883 5882 5883 5884 5884 5884 5883 5883 5883 5882 5882 5882 5883 5883 5883 5883
5873 5874 5876 5877 5878 5879 5880 5881 5881 5881 5882 5884 5885 5885 5887 5887 5887 5887 5887 5887 5886 5886 5887 5887 5886 5885 5884 5884 5883 5882 5883 5882 5882 5882 5882 5882 5881 5881 5880 5880 5880 5880 5881 5881
5869 5871 5872 5873 5874 5875 5876 5877 5878 5878 5878 5880 5881 5881 5883 5883 5883 5883 5884 5883 5883 5883 5883 5883 5883 5883 5883 5882 5881 5881 5881 5880 5880 5880 5880 5880 5879 5879 5878 5878 5878 5877 5878 5878
5865 5867 5868 5869 5870 5871 5872 5872 5874 5874 5874 5875 5876 5877 5878 5879 5879 5880 5880 5880 5880 5880 5880 5880 5880 5880 5880 5879 5879 5878 5879 5878 5878 5878 5878 5877 5877 5876 5876 5875 5875 5874 5874 5875
5860 5862 5864 5864 5866 5866 5867 5868 5869 5869 5869 5870 5872 5872 5874 5875 5875 5876 5876 5876 5876 5876 5876 5877 5877 5877 5877 5876 5876 5876 5876 5875 5875 5875 5875 5874 5874 5873 5873 5872 5872 5871 5871 5871
5855 5857 5859 5860 5860 5861 5863 5864 5864 5865 5865 5866 5866 5870 5870 5870 5871 5872 5872 5872 5873 5873 5873 5873 5873 5873 5873 5873 5873 5872 5872 5872 5872 5871 5871 5871 5870 5869 5869 5869 5868 5867 5867 5867
5850 5851 5852 5854 5855 5856 5857 5858 5859 5860 5861 5861 5862 5867 5865 5866 5867 5867 5868 5868 5868 5868 5869 5869 5869 5869 5869 5869 5868 5868 5868 5868 5868 5867 5867 5866 5866 5865 5864 5864 5863 5862 5862 5861
5844 5845 5847 5848 5851 5851 5852 5852 5853 5855 5855 5856 5857 5862 5861 5861 5862 5862 5863 5863 5864 5864 5864 5864 5865 5865 5865 5864 5864 5864 5863 5863 5863 5862 5862 5861 5860 5860 5859 5858 5857 5856 5856 5855
5837 5839 5841 5843 5844 5845 5846 5847 5848 5849 5849 5850 5852 5854 5855 5856 5856 5857 5858 5858 5858 5859 5859 5859 5859 5859 5859 5859 5858 5858 5857 5857 5857 5856 5856 5855 5854 5853 5853 5852 5850 5849 5849 5848
5830 5832 5833 5835 5837 5838 5839 5841 5842 5843 5844 5845 5846 5847 5849 5849 5850 5851 5851 5852 5852 5853 5853 5853 5853 5853 5853 5853 5853 5852 5851 5851 5850 5850 5849 5848 5847 5846 5845 5844 5843 5842 5841 5840
5822 5824 5826 5828 5829 5830 5831 5833 5835 5836 5837 5838 5839 5841 5842 5842 5843 5844 5845 5846 5846 5847 5847 5847 5847 5847 5847 5847 5846 5845 5845 5844 5843 5842 5841 5840 5839 5838 5837 5836 5835 5833 5833 5832
5814 5816 5818 5820 5821 5822 5823 5826 5827 5829 5830 5831 5832 5834 5834 5835 5836 5837 5838 5839 5839 5840 5840 5840 5840 5840 5840 5839 5839 5838 5837 5836 5835 5834 5834 5832 5831 5830 5829 5827 5826 5825 5824 5823
5807 5808 5809 5811 5813 5814 5819 5818 5820 5821 5822 5823 5825 5826 5827 5828 5829 5830 5831 5832 5832 5832 5832 5832 5832 5832 5832 5832 5831 5830 5829 5828 5827 5826 5825 5824 5823 5822 5820 5819 5817 5816 5815 5815
5798 5800 5801 5802 5803 5805 5809 5810 5811 5812 5814 5816 5817 5818 5819 5820 5821 5823 5823 5824 5824 5824 5824 5824 5823 5823 5823 5823 5822 5821 5820 5819 5818 5817 5816 5815 5813 5812 5811 5809 5808 5806 5806 5805
5789 5791 5793 5794 5795 5796 5801 5802 5802 5804 5805 5807 5808 5809 5810 5812 5813 5815 5815 5815 5815 5815 5815 5815 5815 5814 5814 5813 5812 5811 5810 5809 5808 5807 5806 5804 5803 5802 5801 5800 5798 5797 5796 5796
5781 5782 5783 5785 5785 5787 5791 5792 5793 5796 5799 5799 5799 5800 5802 5803 5804 5805 5805 5806 5806 5806 5806 5806 5805 5805 5805 5804 5803 5801 5800 5799 5798 5797 5795 5794 5793 5792 5791 5790 5789 5788 5787 5786
5772 5773 5775 5776 5777 5781 5782 5783 5785 5787 5788 5789 5790 5791 5792 5793 5794 5795 5795 5796 5797 5797 5796 5796 5796 5795 5795 5794 5793 5792 5791 5790 5788 5786 5785 5784 5783 5782 5780 5779 5778 5777 5777 5776
5762 5764 5766 5768 5771 5771 5772 5774 5775 5777 5778 5779 5781 5782 5783 5783 5784 5785 5786 5786 5786 5787 5786 5786 5786 5785 5785 5784 5783 5782 5781 5779 5778 5777 5775 5774 5773 5771 5770 5769 5768 5768 5766 5766
5753 5755 5757 5758 5760 5762 5764 5765 5766 5768 5768 5770 5771 5772 5773 5774 5774 5775 5775 5776 5776 5776 5776 5776 5775 5775 5774 5773 5773 5771 5770 5769 5768 5767 5765 5764 5763 5761 5760 5759 5758 5757 5756 5755
5745 5746 5747 5749 5752 5754 5755 5756 5758 5758 5759 5760 5761 5762 5763 5764 5765 5765 5766 5766 5766 5766 5766 5766 5765 5764 5764 5763 5762 5761 5760 5759 5758 5756 5755 5754 5753 5752 5750 5749 5748 5746 5745 5744
5737 5738 5739 5741 5743 5745 5747 5748 5749 5750 5750 5751 5752 5753 5754 5755 5755 5756 5756 5757 5757 5757 5756 5756 5755 5754 5753 5753 5752 5751 5750 5749 5748 5746 5745 5744 5743 5742 5740 5739 5737 5735 5734 5733